date,time,SUV Intensity [MED/Hr],UV Index,Daily total [MED],Since Last [MED]
12/10/2023,00:03:40,0.000,0.0,0.0,0.0
12/10/2023,00:04:40,0.000,0.0,0.0,0.0
12/10/2023,00:05:40,-0.000,0.0,0.0,0.0
12/10/2023,00:06:40,0.001,0.0,0.0,0.0
12/10/2023,00:07:41,-0.001,0.0,0.0,0.0
12/10/2023,00:08:40,0.001,0.0,0.0,0.0
12/10/2023,00:09:40,0.001,0.0,0.0,0.0
12/10/2023,00:10:41,0.000,0.0,0.0,0.0
12/10/2023,00:11:40,-0.000,0.0,0.0,0.0
12/10/2023,00:12:40,-0.000,0.0,0.0,0.0
12/10/2023,00:13:40,0.000,0.0,0.0,0.0
12/10/2023,00:14:41,0.000,0.0,0.0,0.0
12/10/2023,00:15:40,0.000,0.0,0.0,0.0
12/10/2023,00:16:41,0.000,0.0,0.0,0.0
12/10/2023,00:17:41,0.000,0.0,0.0,0.0
12/10/2023,00:18:40,0.000,0.0,0.0,0.0
12/10/2023,00:19:41,0.000,0.0,0.0,0.0
12/10/2023,00:20:40,0.000,0.0,0.0,0.0
12/10/2023,00:21:41,0.000,0.0,0.0,0.0
12/10/2023,00:22:40,0.000,0.0,0.0,0.0
12/10/2023,00:23:40,0.000,0.0,0.0,0.0
12/10/2023,00:24:41,0.000,0.0,0.0,0.0
12/10/2023,00:25:41,-0.001,0.0,0.0,0.0
12/10/2023,00:26:41,0.000,0.0,0.0,0.0
12/10/2023,00:27:41,0.000,0.0,0.0,0.0
12/10/2023,00:28:41,0.000,0.0,0.0,0.0
12/10/2023,00:29:40,0.000,0.0,0.0,0.0
12/10/2023,00:30:41,0.000,0.0,0.0,0.0
12/10/2023,00:31:41,0.000,0.0,0.0,0.0
12/10/2023,00:32:41,-0.000,0.0,0.0,0.0
12/10/2023,00:33:41,0.000,0.0,0.0,0.0
12/10/2023,00:34:41,0.000,0.0,0.0,0.0
12/10/2023,00:35:41,0.000,0.0,0.0,0.0
12/10/2023,00:36:41,-0.001,0.0,0.0,0.0
12/10/2023,00:37:41,0.000,0.0,0.0,0.0
12/10/2023,00:38:41,0.000,0.0,0.0,0.0
12/10/2023,00:40:11,0.001,0.0,0.0,0.0
12/10/2023,00:41:41,0.000,0.0,0.0,0.0
12/10/2023,00:42:41,0.000,0.0,0.0,0.0
12/10/2023,00:43:41,0.000,0.0,0.0,0.0
12/10/2023,00:44:42,0.000,0.0,0.0,0.0
12/10/2023,00:45:41,0.000,0.0,0.0,0.0
12/10/2023,00:46:42,0.001,0.0,0.0,0.0
12/10/2023,00:47:41,-0.001,0.0,0.0,0.0
12/10/2023,00:48:42,0.000,0.0,0.0,0.0
12/10/2023,00:49:41,-0.001,0.0,0.0,0.0
12/10/2023,00:50:41,0.001,0.0,0.0,0.0
12/10/2023,00:51:42,0.001,0.0,0.0,0.0
12/10/2023,00:52:42,0.000,0.0,0.0,0.0
12/10/2023,00:53:41,0.000,0.0,0.0,0.0
12/10/2023,00:54:42,0.001,0.0,0.0,0.0
12/10/2023,00:55:42,0.001,0.0,0.0,0.0
12/10/2023,00:56:42,0.001,0.0,0.0,0.0
12/10/2023,00:57:42,0.001,0.0,0.0,0.0
12/10/2023,00:58:42,0.000,0.0,0.0,0.0
12/10/2023,00:59:42,0.000,0.0,0.0,0.0
12/10/2023,01:00:42,0.001,0.0,0.0,0.0
12/10/2023,01:01:43,0.000,0.0,0.0,0.0
12/10/2023,01:02:42,0.000,0.0,0.0,0.0
12/10/2023,01:03:42,-0.001,0.0,0.0,0.0
12/10/2023,01:04:42,-0.000,0.0,0.0,0.0
12/10/2023,01:05:42,0.001,0.0,0.0,0.0
12/10/2023,01:06:42,0.000,0.0,0.0,0.0
12/10/2023,01:07:42,0.000,0.0,0.0,0.0
12/10/2023,01:08:42,0.001,0.0,0.0,0.0
12/10/2023,01:09:42,0.001,0.0,0.0,0.0
12/10/2023,01:10:43,0.001,0.0,0.0,0.0
12/10/2023,01:11:42,0.000,0.0,0.0,0.0
12/10/2023,01:12:42,0.000,0.0,0.0,0.0
12/10/2023,01:13:43,0.001,0.0,0.0,0.0
12/10/2023,01:14:42,0.000,0.0,0.0,0.0
12/10/2023,01:15:42,-0.001,0.0,0.0,0.0
12/10/2023,01:16:42,0.000,0.0,0.0,0.0
12/10/2023,01:17:42,0.001,0.0,0.0,0.0
12/10/2023,01:18:43,0.001,0.0,0.0,0.0
12/10/2023,01:19:43,0.001,0.0,0.0,0.0
12/10/2023,01:20:42,0.000,0.0,0.0,0.0
12/10/2023,01:21:42,0.001,0.0,0.0,0.0
12/10/2023,01:22:43,0.001,0.0,0.0,0.0
12/10/2023,01:23:43,-0.001,0.0,0.0,0.0
12/10/2023,01:24:43,0.001,0.0,0.0,0.0
12/10/2023,01:25:42,0.000,0.0,0.0,0.0
12/10/2023,01:26:43,0.001,0.0,0.0,0.0
12/10/2023,01:27:43,0.000,0.0,0.0,0.0
12/10/2023,01:28:43,0.000,0.0,0.0,0.0
12/10/2023,01:29:43,0.001,0.0,0.0,0.0
12/10/2023,01:30:43,0.001,0.0,0.0,0.0
12/10/2023,01:31:43,0.000,0.0,0.0,0.0
12/10/2023,01:32:43,0.001,0.0,0.0,0.0
12/10/2023,01:33:43,0.001,0.0,0.0,0.0
12/10/2023,01:34:43,0.000,0.0,0.0,0.0
12/10/2023,01:35:43,0.001,0.0,0.0,0.0
12/10/2023,01:36:44,0.001,0.0,0.0,0.0
12/10/2023,01:37:44,0.002,0.0,0.0,0.0
12/10/2023,01:38:44,0.001,0.0,0.0,0.0
12/10/2023,01:39:43,0.000,0.0,0.0,0.0
12/10/2023,01:40:43,0.000,0.0,0.0,0.0
12/10/2023,01:41:44,0.001,0.0,0.0,0.0
12/10/2023,01:42:43,0.001,0.0,0.0,0.0
12/10/2023,01:43:43,0.001,0.0,0.0,0.0
12/10/2023,01:44:46,0.000,0.0,0.0,0.0
12/10/2023,01:45:44,-0.000,0.0,0.0,0.0
12/10/2023,01:46:43,0.001,0.0,0.0,0.0
12/10/2023,01:47:44,0.001,0.0,0.0,0.0
12/10/2023,01:48:44,0.001,0.0,0.0,0.0
12/10/2023,01:49:43,0.001,0.0,0.0,0.0
12/10/2023,01:50:44,0.001,0.0,0.0,0.0
12/10/2023,01:51:43,0.000,0.0,0.0,0.0
12/10/2023,01:52:43,0.001,0.0,0.0,0.0
12/10/2023,01:53:44,0.000,0.0,0.0,0.0
12/10/2023,01:54:44,0.001,0.0,0.0,0.0
12/10/2023,01:55:43,0.000,0.0,0.0,0.0
12/10/2023,01:56:44,0.001,0.0,0.0,0.0
12/10/2023,01:57:44,0.001,0.0,0.0,0.0
12/10/2023,01:58:44,0.001,0.0,0.0,0.0
12/10/2023,01:59:44,0.001,0.0,0.0,0.0
12/10/2023,02:00:44,0.001,0.0,0.0,0.0
12/10/2023,02:01:44,0.000,0.0,0.0,0.0
12/10/2023,02:02:44,-0.001,0.0,0.0,0.0
12/10/2023,02:03:45,0.001,0.0,0.0,0.0
12/10/2023,02:04:44,0.001,0.0,0.0,0.0
12/10/2023,02:05:44,0.001,0.0,0.0,0.0
12/10/2023,02:06:44,0.001,0.0,0.0,0.0
12/10/2023,02:07:44,0.001,0.0,0.0,0.0
12/10/2023,02:08:44,0.001,0.0,0.0,0.0
12/10/2023,02:09:44,0.001,0.0,0.0,0.0
12/10/2023,02:10:44,0.001,0.0,0.0,0.0
12/10/2023,02:11:46,0.000,0.0,0.0,0.0
12/10/2023,02:12:44,0.001,0.0,0.0,0.0
12/10/2023,02:13:44,0.000,0.0,0.0,0.0
12/10/2023,02:14:44,0.001,0.0,0.0,0.0
12/10/2023,02:15:44,0.000,0.0,0.0,0.0
12/10/2023,02:16:45,0.000,0.0,0.0,0.0
12/10/2023,02:17:45,0.001,0.0,0.0,0.0
12/10/2023,02:18:45,0.001,0.0,0.0,0.0
12/10/2023,02:19:45,-0.000,0.0,0.0,0.0
12/10/2023,02:20:45,0.002,0.0,0.0,0.0
12/10/2023,02:21:45,0.001,0.0,0.0,0.0
12/10/2023,02:22:45,0.001,0.0,0.0,0.0
12/10/2023,02:23:45,0.001,0.0,0.0,0.0
12/10/2023,02:24:45,0.001,0.0,0.0,0.0
12/10/2023,02:25:45,0.001,0.0,0.0,0.0
12/10/2023,02:26:45,0.000,0.0,0.0,0.0
12/10/2023,02:27:45,0.000,0.0,0.0,0.0
12/10/2023,02:28:45,0.001,0.0,0.0,0.0
12/10/2023,02:29:45,0.000,0.0,0.0,0.0
12/10/2023,02:30:45,0.001,0.0,0.0,0.0
12/10/2023,02:31:45,0.000,0.0,0.0,0.0
12/10/2023,02:32:45,0.001,0.0,0.0,0.0
12/10/2023,02:33:45,-0.000,0.0,0.0,0.0
12/10/2023,02:34:45,0.001,0.0,0.0,0.0
12/10/2023,02:35:45,-0.000,0.0,0.0,0.0
12/10/2023,02:36:45,0.001,0.0,0.0,0.0
12/10/2023,02:37:46,0.000,0.0,0.0,0.0
12/10/2023,02:38:45,-0.000,0.0,0.0,0.0
12/10/2023,02:39:45,0.001,0.0,0.0,0.0
12/10/2023,02:40:46,0.001,0.0,0.0,0.0
12/10/2023,02:41:45,0.000,0.0,0.0,0.0
12/10/2023,02:42:46,0.001,0.0,0.0,0.0
12/10/2023,02:43:46,0.001,0.0,0.0,0.0
12/10/2023,02:44:46,0.000,0.0,0.0,0.0
12/10/2023,02:45:45,0.002,0.0,0.0,0.0
12/10/2023,02:46:45,-0.000,0.0,0.0,0.0
12/10/2023,02:47:46,0.000,0.0,0.0,0.0
12/10/2023,02:48:46,0.002,0.0,0.0,0.0
12/10/2023,02:49:46,0.000,0.0,0.0,0.0
12/10/2023,02:50:45,0.000,0.0,0.0,0.0
12/10/2023,02:51:45,0.001,0.0,0.0,0.0
12/10/2023,02:52:46,0.000,0.0,0.0,0.0
12/10/2023,02:53:46,0.000,0.0,0.0,0.0
12/10/2023,02:54:46,0.001,0.0,0.0,0.0
12/10/2023,02:55:46,0.002,0.0,0.0,0.0
12/10/2023,02:56:46,0.000,0.0,0.0,0.0
12/10/2023,02:57:46,0.001,0.0,0.0,0.0
12/10/2023,02:58:46,0.001,0.0,0.0,0.0
12/10/2023,02:59:45,0.000,0.0,0.0,0.0
12/10/2023,03:00:46,0.001,0.0,0.0,0.0
12/10/2023,03:01:46,0.001,0.0,0.0,0.0
12/10/2023,03:02:46,0.001,0.0,0.0,0.0
12/10/2023,03:03:46,0.001,0.0,0.0,0.0
12/10/2023,03:04:46,0.000,0.0,0.0,0.0
12/10/2023,03:05:46,0.001,0.0,0.0,0.0
12/10/2023,03:06:46,0.001,0.0,0.0,0.0
12/10/2023,03:07:46,0.000,0.0,0.0,0.0
12/10/2023,03:08:46,0.000,0.0,0.0,0.0
12/10/2023,03:09:47,0.001,0.0,0.0,0.0
12/10/2023,03:10:46,0.001,0.0,0.0,0.0
12/10/2023,03:11:46,0.002,0.0,0.0,0.0
12/10/2023,03:12:47,0.000,0.0,0.0,0.0
12/10/2023,03:13:47,0.001,0.0,0.0,0.0
12/10/2023,03:14:47,0.001,0.0,0.0,0.0
12/10/2023,03:15:46,0.001,0.0,0.0,0.0
12/10/2023,03:16:47,0.001,0.0,0.0,0.0
12/10/2023,03:17:47,0.000,0.0,0.0,0.0
12/10/2023,03:18:47,0.001,0.0,0.0,0.0
12/10/2023,03:19:47,0.001,0.0,0.0,0.0
12/10/2023,03:20:47,-0.000,0.0,0.0,0.0
12/10/2023,03:21:46,0.001,0.0,0.0,0.0
12/10/2023,03:22:47,0.001,0.0,0.0,0.0
12/10/2023,03:23:47,0.001,0.0,0.0,0.0
12/10/2023,03:24:47,0.001,0.0,0.0,0.0
12/10/2023,03:25:47,0.001,0.0,0.0,0.0
12/10/2023,03:26:47,0.001,0.0,0.0,0.0
12/10/2023,03:27:47,0.000,0.0,0.0,0.0
12/10/2023,03:28:47,0.001,0.0,0.0,0.0
12/10/2023,03:29:47,-0.000,0.0,0.0,0.0
12/10/2023,03:30:50,0.001,0.0,0.0,0.0
12/10/2023,03:31:47,0.001,0.0,0.0,0.0
12/10/2023,03:32:47,0.001,0.0,0.0,0.0
12/10/2023,03:33:47,0.001,0.0,0.0,0.0
12/10/2023,03:34:47,0.001,0.0,0.0,0.0
12/10/2023,03:35:47,0.001,0.0,0.0,0.0
12/10/2023,03:36:47,0.000,0.0,0.0,0.0
12/10/2023,03:37:47,0.001,0.0,0.0,0.0
12/10/2023,03:38:47,0.000,0.0,0.0,0.0
12/10/2023,03:39:47,0.001,0.0,0.0,0.0
12/10/2023,03:40:48,0.001,0.0,0.0,0.0
12/10/2023,03:41:47,0.001,0.0,0.0,0.0
12/10/2023,03:42:47,0.001,0.0,0.0,0.0
12/10/2023,03:43:48,0.001,0.0,0.0,0.0
12/10/2023,03:44:48,0.001,0.0,0.0,0.0
12/10/2023,03:45:48,0.001,0.0,0.0,0.0
12/10/2023,03:46:47,0.001,0.0,0.0,0.0
12/10/2023,03:47:47,0.001,0.0,0.0,0.0
12/10/2023,03:48:48,0.001,0.0,0.0,0.0
12/10/2023,03:49:48,0.001,0.0,0.0,0.0
12/10/2023,03:50:50,0.001,0.0,0.0,0.0
12/10/2023,03:51:47,0.001,0.0,0.0,0.0
12/10/2023,03:52:47,0.001,0.0,0.0,0.0
12/10/2023,03:53:48,-0.000,0.0,0.0,0.0
12/10/2023,03:54:48,0.002,0.0,0.0,0.0
12/10/2023,03:55:48,0.001,0.0,0.0,0.0
12/10/2023,03:56:48,0.001,0.0,0.0,0.0
12/10/2023,03:57:48,0.002,0.0,0.0,0.0
12/10/2023,03:58:48,0.001,0.0,0.0,0.0
12/10/2023,03:59:48,0.001,0.0,0.0,0.0
12/10/2023,04:00:48,0.001,0.0,0.0,0.0
12/10/2023,04:01:48,0.001,0.0,0.0,0.0
12/10/2023,04:02:48,0.001,0.0,0.0,0.0
12/10/2023,04:03:49,0.001,0.0,0.0,0.0
12/10/2023,04:04:48,0.002,0.0,0.0,0.0
12/10/2023,04:05:48,0.001,0.0,0.0,0.0
12/10/2023,04:06:48,0.001,0.0,0.0,0.0
12/10/2023,04:07:48,0.000,0.0,0.0,0.0
12/10/2023,04:08:48,0.001,0.0,0.0,0.0
12/10/2023,04:09:49,0.001,0.0,0.0,0.0
12/10/2023,04:10:48,0.001,0.0,0.0,0.0
12/10/2023,04:11:48,0.001,0.0,0.0,0.0
12/10/2023,04:12:48,0.000,0.0,0.0,0.0
12/10/2023,04:13:48,0.001,0.0,0.0,0.0
12/10/2023,04:15:18,0.000,0.0,0.0,0.0
12/10/2023,04:16:48,0.001,0.0,0.0,0.0
12/10/2023,04:17:48,0.002,0.0,0.0,0.0
12/10/2023,04:18:48,0.000,0.0,0.0,0.0
12/10/2023,04:19:49,0.000,0.0,0.0,0.0
12/10/2023,04:20:49,0.002,0.0,0.0,0.0
12/10/2023,04:21:49,0.000,0.0,0.0,0.0
12/10/2023,04:22:49,0.001,0.0,0.0,0.0
12/10/2023,04:23:48,0.000,0.0,0.0,0.0
12/10/2023,04:24:48,0.002,0.0,0.0,0.0
12/10/2023,04:25:49,0.001,0.0,0.0,0.0
12/10/2023,04:26:48,0.001,0.0,0.0,0.0
12/10/2023,04:27:48,0.001,0.0,0.0,0.0
12/10/2023,04:28:49,0.001,0.0,0.0,0.0
12/10/2023,04:29:49,0.002,0.0,0.0,0.0
12/10/2023,04:30:49,0.000,0.0,0.0,0.0
12/10/2023,04:31:49,0.001,0.0,0.0,0.0
12/10/2023,04:32:49,0.001,0.0,0.0,0.0
12/10/2023,04:33:49,0.002,0.0,0.0,0.0
12/10/2023,04:34:49,0.001,0.0,0.0,0.0
12/10/2023,04:35:49,0.001,0.0,0.0,0.0
12/10/2023,04:36:49,-0.000,0.0,0.0,0.0
12/10/2023,04:37:50,0.002,0.0,0.0,0.0
12/10/2023,04:38:49,0.000,0.0,0.0,0.0
12/10/2023,04:39:50,0.002,0.0,0.0,0.0
12/10/2023,04:40:49,0.000,0.0,0.0,0.0
12/10/2023,04:41:50,0.001,0.0,0.0,0.0
12/10/2023,04:42:49,0.001,0.0,0.0,0.0
12/10/2023,04:43:49,0.001,0.0,0.0,0.0
12/10/2023,04:44:49,0.001,0.0,0.0,0.0
12/10/2023,04:45:49,0.002,0.0,0.0,0.0
12/10/2023,04:46:49,0.000,0.0,0.0,0.0
12/10/2023,04:47:49,0.000,0.0,0.0,0.0
12/10/2023,04:48:50,0.001,0.0,0.0,0.0
12/10/2023,04:49:49,0.002,0.0,0.0,0.0
12/10/2023,04:50:49,0.001,0.0,0.0,0.0
12/10/2023,04:51:50,0.001,0.0,0.0,0.0
12/10/2023,04:52:49,0.002,0.0,0.0,0.0
12/10/2023,04:53:49,0.001,0.0,0.0,0.0
12/10/2023,04:54:50,0.001,0.0,0.0,0.0
12/10/2023,04:55:50,0.001,0.0,0.0,0.0
12/10/2023,04:56:50,0.000,0.0,0.0,0.0
12/10/2023,04:57:50,0.001,0.0,0.0,0.0
12/10/2023,04:58:50,0.001,0.0,0.0,0.0
12/10/2023,04:59:50,0.002,0.0,0.0,0.0
12/10/2023,05:00:50,0.001,0.0,0.0,0.0
12/10/2023,05:01:50,0.001,0.0,0.0,0.0
12/10/2023,05:02:50,0.001,0.0,0.0,0.0
12/10/2023,05:03:50,0.001,0.0,0.0,0.0
12/10/2023,05:04:50,0.001,0.0,0.0,0.0
12/10/2023,05:05:50,0.002,0.0,0.0,0.0
12/10/2023,05:06:50,0.001,0.0,0.0,0.0
12/10/2023,05:07:50,0.000,0.0,0.0,0.0
12/10/2023,05:08:51,0.001,0.0,0.0,0.0
12/10/2023,05:09:50,0.000,0.0,0.0,0.0
12/10/2023,05:10:50,0.001,0.0,0.0,0.0
12/10/2023,05:11:50,0.001,0.0,0.0,0.0
12/10/2023,05:12:51,0.001,0.0,0.0,0.0
12/10/2023,05:13:50,0.002,0.0,0.0,0.0
12/10/2023,05:14:51,0.001,0.0,0.0,0.0
12/10/2023,05:15:50,0.001,0.0,0.0,0.0
12/10/2023,05:16:50,0.001,0.0,0.0,0.0
12/10/2023,05:17:51,0.000,0.0,0.0,0.0
12/10/2023,05:18:50,0.000,0.0,0.0,0.0
12/10/2023,05:19:50,0.002,0.0,0.0,0.0
12/10/2023,05:20:51,0.000,0.0,0.0,0.0
12/10/2023,05:21:50,0.001,0.0,0.0,0.0
12/10/2023,05:22:50,0.001,0.0,0.0,0.0
12/10/2023,05:23:51,0.001,0.0,0.0,0.0
12/10/2023,05:24:50,0.000,0.0,0.0,0.0
12/10/2023,05:25:50,0.001,0.0,0.0,0.0
12/10/2023,05:26:51,0.001,0.0,0.0,0.0
12/10/2023,05:27:50,0.002,0.0,0.0,0.0
12/10/2023,05:28:51,0.001,0.0,0.0,0.0
12/10/2023,05:29:51,0.002,0.0,0.0,0.0
12/10/2023,05:30:50,0.002,0.0,0.0,0.0
12/10/2023,05:31:51,0.002,0.0,0.0,0.0
12/10/2023,05:32:51,0.002,0.0,0.0,0.0
12/10/2023,05:33:51,0.001,0.0,0.0,0.0
12/10/2023,05:34:51,0.001,0.0,0.0,0.0
12/10/2023,05:35:51,0.002,0.0,0.0,0.0
12/10/2023,05:36:51,0.001,0.0,0.0,0.0
12/10/2023,05:37:51,0.001,0.0,0.0,0.0
12/10/2023,05:38:51,0.001,0.0,0.0,0.0
12/10/2023,05:39:53,0.001,0.0,0.0,0.0
12/10/2023,05:40:52,0.000,0.0,0.0,0.0
12/10/2023,05:41:51,0.001,0.0,0.0,0.0
12/10/2023,05:42:51,0.001,0.0,0.0,0.0
12/10/2023,05:43:51,0.001,0.0,0.0,0.0
12/10/2023,05:44:52,0.001,0.0,0.0,0.0
12/10/2023,05:45:51,0.002,0.0,0.0,0.0
12/10/2023,05:46:51,0.001,0.0,0.0,0.0
12/10/2023,05:47:51,0.002,0.0,0.0,0.0
12/10/2023,05:48:51,0.001,0.0,0.0,0.0
12/10/2023,05:49:52,0.002,0.0,0.0,0.0
12/10/2023,05:50:51,0.001,0.0,0.0,0.0
12/10/2023,05:51:51,0.001,0.0,0.0,0.0
12/10/2023,05:52:52,0.002,0.0,0.0,0.0
12/10/2023,05:53:51,0.002,0.0,0.0,0.0
12/10/2023,05:54:51,0.000,0.0,0.0,0.0
12/10/2023,05:55:52,0.002,0.0,0.0,0.0
12/10/2023,05:56:51,0.002,0.0,0.0,0.0
12/10/2023,05:57:52,0.002,0.0,0.0,0.0
12/10/2023,05:58:52,0.002,0.0,0.0,0.0
12/10/2023,05:59:52,0.001,0.0,0.0,0.0
12/10/2023,06:00:52,0.000,0.0,0.0,0.0
12/10/2023,06:01:51,0.002,0.0,0.0,0.0
12/10/2023,06:02:52,0.001,0.0,0.0,0.0
12/10/2023,06:03:52,0.001,0.0,0.0,0.0
12/10/2023,06:04:52,0.001,0.0,0.0,0.0
12/10/2023,06:05:52,0.001,0.0,0.0,0.0
12/10/2023,06:06:52,0.002,0.0,0.0,0.0
12/10/2023,06:07:52,0.001,0.0,0.0,0.0
12/10/2023,06:08:53,0.000,0.0,0.0,0.0
12/10/2023,06:09:52,0.002,0.0,0.0,0.0
12/10/2023,06:10:52,0.002,0.0,0.0,0.0
12/10/2023,06:11:52,0.001,0.0,0.0,0.0
12/10/2023,06:12:53,0.001,0.0,0.0,0.0
12/10/2023,06:13:52,0.000,0.0,0.0,0.0
12/10/2023,06:14:53,0.001,0.0,0.0,0.0
12/10/2023,06:15:52,0.001,0.0,0.0,0.0
12/10/2023,06:16:52,0.001,0.0,0.0,0.0
12/10/2023,06:17:52,0.001,0.0,0.0,0.0
12/10/2023,06:18:52,0.002,0.0,0.0,0.0
12/10/2023,06:19:53,0.000,0.0,0.0,0.0
12/10/2023,06:20:52,0.000,0.0,0.0,0.0
12/10/2023,06:21:52,0.001,0.0,0.0,0.0
12/10/2023,06:22:53,0.002,0.0,0.0,0.0
12/10/2023,06:23:52,0.002,0.0,0.0,0.0
12/10/2023,06:24:53,0.002,0.0,0.0,0.0
12/10/2023,06:25:53,0.002,0.0,0.0,0.0
12/10/2023,06:26:53,0.001,0.0,0.0,0.0
12/10/2023,06:27:53,0.002,0.0,0.0,0.0
12/10/2023,06:28:53,0.001,0.0,0.0,0.0
12/10/2023,06:29:52,0.001,0.0,0.0,0.0
12/10/2023,06:30:53,0.002,0.0,0.0,0.0
12/10/2023,06:31:53,0.002,0.0,0.0,0.0
12/10/2023,06:32:53,0.002,0.0,0.0,0.0
12/10/2023,06:33:53,0.003,0.0,0.0,0.0
12/10/2023,06:34:53,0.003,0.0,0.0,0.0
12/10/2023,06:35:53,0.001,0.0,0.0,0.0
12/10/2023,06:36:54,0.002,0.0,0.0,0.0
12/10/2023,06:37:53,0.002,0.0,0.0,0.0
12/10/2023,06:38:53,0.002,0.0,0.0,0.0
12/10/2023,06:39:53,0.003,0.0,0.0,0.0
12/10/2023,06:40:53,0.002,0.0,0.0,0.0
12/10/2023,06:41:54,0.002,0.0,0.0,0.0
12/10/2023,06:42:53,0.002,0.0,0.0,0.0
12/10/2023,06:43:53,0.002,0.0,0.0,0.0
12/10/2023,06:44:54,0.003,0.0,0.0,0.0
12/10/2023,06:45:54,0.003,0.0,0.0,0.0
12/10/2023,06:46:53,0.003,0.0,0.0,0.0
12/10/2023,06:47:54,0.003,0.0,0.0,0.0
12/10/2023,06:48:53,0.003,0.0,0.0,0.0
12/10/2023,06:49:53,0.003,0.0,0.0,0.0
12/10/2023,06:50:54,0.003,0.0,0.0,0.0
12/10/2023,06:51:54,0.003,0.0,0.0,0.0
12/10/2023,06:52:54,0.003,0.0,0.0,0.0
12/10/2023,06:53:53,0.003,0.0,0.0,0.0
12/10/2023,06:54:54,0.004,0.0,0.0,0.0
12/10/2023,06:55:54,0.004,0.0,0.0,0.0
12/10/2023,06:56:54,0.005,0.0,0.0,0.0
12/10/2023,06:57:54,0.005,0.0,0.0,0.0
12/10/2023,06:58:54,0.005,0.0,0.0,0.0
12/10/2023,06:59:54,0.005,0.0,0.0,0.0
12/10/2023,07:00:53,0.005,0.0,0.0,0.0
12/10/2023,07:01:54,0.005,0.0,0.0,0.0
12/10/2023,07:02:54,0.007,0.0,0.0,0.0
12/10/2023,07:03:54,0.006,0.0,0.0,0.0
12/10/2023,07:04:54,0.007,0.0,0.0,0.0
12/10/2023,07:05:54,0.007,0.0,0.0,0.0
12/10/2023,07:06:54,0.006,0.0,0.0,0.0
12/10/2023,07:07:54,0.007,0.0,0.0,0.0
12/10/2023,07:08:54,0.007,0.0,0.001,0.001
12/10/2023,07:09:54,0.007,0.0,0.001,0.0
12/10/2023,07:10:55,0.007,0.0,0.001,0.0
12/10/2023,07:11:54,0.008,0.0,0.001,0.0
12/10/2023,07:12:54,0.007,0.0,0.001,0.0
12/10/2023,07:13:54,0.007,0.0,0.001,0.0
12/10/2023,07:14:55,0.009,0.0,0.001,0.0
12/10/2023,07:15:55,0.009,0.0,0.002,0.001
12/10/2023,07:16:54,0.010,0.0,0.002,0.0
12/10/2023,07:17:55,0.010,0.0,0.002,0.0
12/10/2023,07:18:54,0.011,0.0,0.002,0.0
12/10/2023,07:19:54,0.009,0.0,0.002,0.0
12/10/2023,07:20:55,0.011,0.0,0.002,0.0
12/10/2023,07:21:55,0.011,0.0,0.003,0.001
12/10/2023,07:22:55,0.011,0.0,0.003,0.0
12/10/2023,07:23:55,0.010,0.0,0.003,0.0
12/10/2023,07:24:55,0.011,0.0,0.003,0.0
12/10/2023,07:25:55,0.010,0.0,0.003,0.0
12/10/2023,07:26:55,0.011,0.0,0.003,0.0
12/10/2023,07:27:55,0.010,0.0,0.004,0.001
12/10/2023,07:28:54,0.010,0.0,0.004,0.0
12/10/2023,07:29:54,0.011,0.0,0.004,0.0
12/10/2023,07:30:55,0.011,0.0,0.004,0.0
12/10/2023,07:31:55,0.012,0.0,0.004,0.0
12/10/2023,07:32:55,0.012,0.0,0.005,0.001
12/10/2023,07:33:55,0.014,0.0,0.005,0.0
12/10/2023,07:34:55,0.015,0.0,0.005,0.0
12/10/2023,07:35:55,0.015,0.0,0.005,0.0
12/10/2023,07:36:56,0.015,0.0,0.005,0.0
12/10/2023,07:37:55,0.015,0.0,0.006,0.001
12/10/2023,07:38:55,0.017,0.0,0.006,0.0
12/10/2023,07:39:55,0.018,0.0,0.006,0.0
12/10/2023,07:40:55,0.016,0.0,0.007,0.001
12/10/2023,07:41:55,0.018,0.0,0.007,0.0
12/10/2023,07:42:55,0.018,0.0,0.007,0.0
12/10/2023,07:43:55,0.020,0.0,0.007,0.0
12/10/2023,07:44:55,0.019,0.0,0.008,0.001
12/10/2023,07:45:55,0.020,0.0,0.008,0.0
12/10/2023,07:46:55,0.022,0.0,0.008,0.0
12/10/2023,07:48:25,0.019,0.0,0.009,0.001
12/10/2023,07:49:56,0.018,0.0,0.009,0.0
12/10/2023,07:50:56,0.018,0.0,0.01,0.001
12/10/2023,07:51:56,0.019,0.0,0.01,0.0
12/10/2023,07:52:56,0.021,0.0,0.01,0.0
12/10/2023,07:53:56,0.024,0.0,0.011,0.001
12/10/2023,07:54:55,0.024,0.0,0.011,0.0
12/10/2023,07:55:55,0.025,0.0,0.012,0.001
12/10/2023,07:56:56,0.023,0.0,0.012,0.0
12/10/2023,07:57:56,0.023,0.0,0.012,0.0
12/10/2023,07:58:56,0.022,0.0,0.013,0.001
12/10/2023,07:59:56,0.023,0.0,0.013,0.0
12/10/2023,08:00:56,0.027,0.0,0.014,0.001
12/10/2023,08:01:56,0.030,0.0,0.014,0.0
12/10/2023,08:02:57,0.031,0.0,0.014,0.0
12/10/2023,08:03:56,0.034,0.0,0.015,0.001
12/10/2023,08:04:56,0.033,0.0,0.016,0.001
12/10/2023,08:05:56,0.034,0.0,0.016,0.0
12/10/2023,08:06:57,0.034,0.0,0.017,0.001
12/10/2023,08:07:56,0.037,0.0,0.017,0.0
12/10/2023,08:08:56,0.039,0.0,0.018,0.001
12/10/2023,08:09:56,0.041,0.0,0.019,0.001
12/10/2023,08:10:56,0.045,0.0,0.019,0.0
12/10/2023,08:11:56,0.048,0.0,0.02,0.001
12/10/2023,08:12:56,0.052,0.0,0.021,0.001
12/10/2023,08:13:56,0.054,0.0,0.022,0.001
12/10/2023,08:14:56,0.053,0.0,0.023,0.001
12/10/2023,08:15:56,0.053,0.0,0.024,0.001
12/10/2023,08:16:56,0.055,0.0,0.024,0.0
12/10/2023,08:17:57,0.061,0.0,0.025,0.001
12/10/2023,08:18:56,0.064,0.0,0.026,0.001
12/10/2023,08:19:57,0.064,0.0,0.028,0.002
12/10/2023,08:20:57,0.068,0.0,0.029,0.001
12/10/2023,08:21:56,0.072,0.0,0.03,0.001
12/10/2023,08:22:57,0.073,0.0,0.031,0.001
12/10/2023,08:23:57,0.071,0.0,0.032,0.001
12/10/2023,08:24:57,0.071,0.0,0.033,0.001
12/10/2023,08:25:57,0.066,0.0,0.035,0.002
12/10/2023,08:26:57,0.062,0.0,0.036,0.001
12/10/2023,08:27:57,0.062,0.0,0.037,0.001
12/10/2023,08:28:57,0.061,0.0,0.038,0.001
12/10/2023,08:29:57,0.063,0.0,0.039,0.001
12/10/2023,08:30:58,0.067,0.0,0.04,0.001
12/10/2023,08:31:58,0.062,0.0,0.041,0.001
12/10/2023,08:32:57,0.057,0.0,0.042,0.001
12/10/2023,08:33:57,0.057,0.0,0.043,0.001
12/10/2023,08:34:57,0.062,0.0,0.044,0.001
12/10/2023,08:35:57,0.064,0.0,0.045,0.001
12/10/2023,08:36:57,0.067,0.0,0.046,0.001
12/10/2023,08:37:58,0.067,0.0,0.047,0.001
12/10/2023,08:38:57,0.070,0.0,0.048,0.001
12/10/2023,08:39:57,0.071,0.0,0.049,0.001
12/10/2023,08:40:58,0.070,0.0,0.051,0.002
12/10/2023,08:41:57,0.073,0.0,0.052,0.001
12/10/2023,08:42:57,0.075,0.0,0.053,0.001
12/10/2023,08:43:57,0.075,0.0,0.054,0.001
12/10/2023,08:44:57,0.079,0.0,0.056,0.002
12/10/2023,08:45:58,0.085,0.0,0.057,0.001
12/10/2023,08:46:58,0.088,0.0,0.058,0.001
12/10/2023,08:47:57,0.089,0.0,0.06,0.002
12/10/2023,08:48:57,0.088,0.0,0.061,0.001
12/10/2023,08:49:58,0.086,0.0,0.063,0.002
12/10/2023,08:50:58,0.081,0.0,0.064,0.001
12/10/2023,08:51:57,0.088,0.0,0.066,0.002
12/10/2023,08:52:58,0.093,0.0,0.067,0.001
12/10/2023,08:53:58,0.099,0.0,0.069,0.002
12/10/2023,08:54:58,0.102,0.0,0.07,0.001
12/10/2023,08:55:58,0.104,0.0,0.072,0.002
12/10/2023,08:56:58,0.109,0.0,0.074,0.002
12/10/2023,08:57:58,0.108,0.0,0.076,0.002
12/10/2023,08:58:58,0.106,0.0,0.077,0.001
12/10/2023,08:59:58,0.101,0.0,0.079,0.002
12/10/2023,09:00:58,0.093,0.0,0.081,0.002
12/10/2023,09:01:58,0.083,0.0,0.082,0.001
12/10/2023,09:02:58,0.077,0.0,0.084,0.002
12/10/2023,09:03:58,0.083,0.0,0.085,0.001
12/10/2023,09:04:58,0.088,0.0,0.086,0.001
12/10/2023,09:05:58,0.087,0.0,0.088,0.002
12/10/2023,09:06:59,0.091,0.0,0.089,0.001
12/10/2023,09:07:58,0.092,0.0,0.091,0.002
12/10/2023,09:08:58,0.093,0.0,0.092,0.001
12/10/2023,09:09:59,0.098,0.0,0.094,0.002
12/10/2023,09:10:58,0.105,0.0,0.096,0.002
12/10/2023,09:11:59,0.106,0.0,0.097,0.001
12/10/2023,09:12:58,0.107,0.0,0.099,0.002
12/10/2023,09:13:58,0.114,0.0,0.101,0.002
12/10/2023,09:14:59,0.119,0.0,0.103,0.002
12/10/2023,09:15:58,0.119,0.0,0.105,0.002
12/10/2023,09:16:59,0.123,0.0,0.107,0.002
12/10/2023,09:17:58,0.119,0.0,0.109,0.002
12/10/2023,09:18:58,0.117,0.0,0.111,0.002
12/10/2023,09:19:59,0.109,0.0,0.113,0.002
12/10/2023,09:20:58,0.118,0.0,0.115,0.002
12/10/2023,09:21:58,0.119,0.0,0.117,0.002
12/10/2023,09:22:58,0.129,0.0,0.119,0.002
12/10/2023,09:23:59,0.145,0.0,0.121,0.002
12/10/2023,09:25:00,0.152,0.0,0.124,0.003
12/10/2023,09:25:59,0.149,0.0,0.126,0.002
12/10/2023,09:26:59,0.140,0.0,0.128,0.002
12/10/2023,09:27:59,0.138,0.0,0.131,0.003
12/10/2023,09:28:59,0.143,0.0,0.133,0.002
12/10/2023,09:29:59,0.155,0.0,0.136,0.003
12/10/2023,09:30:59,0.158,0.0,0.138,0.002
12/10/2023,09:31:59,0.154,0.0,0.141,0.003
12/10/2023,09:32:59,0.152,0.0,0.143,0.002
12/10/2023,09:33:59,0.153,0.0,0.146,0.003
12/10/2023,09:34:59,0.154,0.0,0.148,0.002
12/10/2023,09:35:59,0.155,0.0,0.151,0.003
12/10/2023,09:36:59,0.153,0.0,0.154,0.003
12/10/2023,09:37:59,0.148,0.0,0.156,0.002
12/10/2023,09:38:59,0.147,0.0,0.159,0.003
12/10/2023,09:39:59,0.141,0.0,0.161,0.002
12/10/2023,09:40:59,0.138,0.0,0.163,0.002
12/10/2023,09:41:59,0.141,0.0,0.165,0.002
12/10/2023,09:42:59,0.142,0.0,0.168,0.003
12/10/2023,09:44:00,0.139,0.0,0.17,0.002
12/10/2023,09:44:59,0.136,0.0,0.173,0.003
12/10/2023,09:45:59,0.134,0.0,0.175,0.002
12/10/2023,09:46:59,0.138,0.0,0.177,0.002
12/10/2023,09:47:59,0.139,0.0,0.179,0.002
12/10/2023,09:48:59,0.138,0.0,0.182,0.003
12/10/2023,09:50:04,0.137,0.0,0.184,0.002
12/10/2023,09:51:00,0.140,0.0,0.186,0.002
12/10/2023,09:52:00,0.141,0.0,0.189,0.003
12/10/2023,09:52:59,0.135,0.0,0.191,0.002
12/10/2023,09:53:59,0.136,0.0,0.193,0.002
12/10/2023,09:55:22,0.147,0.0,0.196,0.003
12/10/2023,09:56:00,0.155,0.0,0.198,0.002
12/10/2023,09:57:00,0.162,0.0,0.201,0.003
12/10/2023,09:57:59,0.163,0.0,0.203,0.002
12/10/2023,09:59:00,0.161,0.0,0.206,0.003
12/10/2023,09:59:59,0.160,0.0,0.209,0.003
12/10/2023,10:01:00,0.163,0.0,0.211,0.002
12/10/2023,10:02:00,0.161,0.0,0.214,0.003
12/10/2023,10:02:59,0.161,0.0,0.217,0.003
12/10/2023,10:04:00,0.159,0.0,0.22,0.003
12/10/2023,10:05:00,0.155,0.0,0.222,0.002
12/10/2023,10:06:00,0.149,0.0,0.225,0.003
12/10/2023,10:07:01,0.153,0.0,0.227,0.002
12/10/2023,10:08:01,0.152,0.0,0.23,0.003
12/10/2023,10:09:00,0.159,0.0,0.232,0.002
12/10/2023,10:10:02,0.167,0.0,0.235,0.003
12/10/2023,10:11:00,0.165,0.0,0.238,0.003
12/10/2023,10:12:00,0.162,0.0,0.241,0.003
12/10/2023,10:13:01,0.156,0.0,0.243,0.002
12/10/2023,10:14:01,0.156,0.0,0.246,0.003
12/10/2023,10:15:01,0.164,0.0,0.248,0.002
12/10/2023,10:16:00,0.163,0.0,0.251,0.003
12/10/2023,10:17:02,0.166,0.0,0.254,0.003